| time (UTC) | temp F | wind direction | speed MPH | gust MPH | rain 1hr in | rain 24hr in | rain mn in | humidity % | barometer mb |
| 20260831172104 | 70 | 306 | 1.0 | 3.0 | 0.00 | 0.00 | 0.00 | 42 | 1009.3 |
| 20260831171604 | 70 | 298 | 0.0 | 0.0 | 0.00 | 0.00 | 0.00 | 45 | 1009.3 |
| 20260831171104 | 69 | 307 | 0.0 | 0.0 | 0.00 | 0.00 | 0.00 | 45 | 1009.3 |
| 20260831171022 | 69 | 318 | 0.0 | 1.0 | 0.00 | 0.00 | 0.00 | 45 | 1009.3 |
| 20260831170604 | 69 | 318 | 0.0 | 1.0 | 0.00 | 0.00 | 0.00 | 45 | 1009.3 |
| 20260831165603 | 68 | 318 | 0.0 | 0.0 | 0.00 | 0.00 | 0.00 | 47 | 1009.4 |
| 20260831164022 | 67 | 331 | 0.0 | 0.0 | 0.00 | 0.00 | 0.00 | 48 | 1009.6 |
| 20260831163605 | 67 | 331 | 0.0 | 0.0 | 0.00 | 0.00 | 0.00 | 48 | 1009.6 |
| 20260831163024 | 66 | 288 | 0.0 | 2.0 | 0.00 | 0.00 | 0.00 | 50 | 1009.7 |
| 20260831162604 | 66 | 288 | 0.0 | 2.0 | 0.00 | 0.00 | 0.00 | 50 | 1009.7 |
| 20260831162104 | 66 | 281 | 0.0 | 2.0 | 0.00 | 0.00 | 0.00 | 50 | 1009.8 |
| 20260831162021 | 65 | 272 | 0.0 | 1.0 | 0.00 | 0.00 | 0.00 | 50 | 1009.9 |
| 20260831161604 | 65 | 272 | 0.0 | 1.0 | 0.00 | 0.00 | 0.00 | 50 | 1009.9 |
| 20260831161104 | 65 | 268 | 0.0 | 0.0 | 0.00 | 0.00 | 0.00 | 51 | 1010.1 |
| 20260831161022 | 65 | 268 | 0.0 | 0.0 | 0.00 | 0.00 | 0.00 | 51 | 1010.1 |
| 20260831160603 | 65 | 268 | 0.0 | 0.0 | 0.00 | 0.00 | 0.00 | 51 | 1010.1 |
| 20260831160024 | 64 | 270 | 0.0 | 0.0 | 0.00 | 0.00 | 0.00 | 52 | 1010.2 |
| 20260831155603 | 64 | 270 | 0.0 | 0.0 | 0.00 | 0.00 | 0.00 | 52 | 1010.2 |
| 20260831155022 | 63 | 269 | 0.0 | 0.0 | 0.00 | 0.00 | 0.00 | 56 | 1010.3 |
| 20260831154604 | 63 | 269 | 0.0 | 0.0 | 0.00 | 0.00 | 0.00 | 56 | 1010.3 |
| 20260831153603 | 62 | 269 | 0.0 | 0.0 | 0.00 | 0.00 | 0.00 | 57 | 1010.4 |
| 20260831153104 | 61 | 269 | 0.0 | 0.0 | 0.00 | 0.00 | 0.00 | 57 | 1010.4 |
| 20260831153024 | 60 | 269 | 0.0 | 0.0 | 0.00 | 0.00 | 0.00 | 59 | 1010.3 |
| 20260831152604 | 60 | 269 | 0.0 | 0.0 | 0.00 | 0.00 | 0.00 | 59 | 1010.3 |
| 20260831152022 | 59 | 269 | 0.0 | 0.0 | 0.00 | 0.00 | 0.00 | 61 | 1010.4 |
| 20260831151603 | 59 | 269 | 0.0 | 0.0 | 0.00 | 0.00 | 0.00 | 61 | 1010.4 |
| 20260831151104 | 58 | 269 | 0.0 | 0.0 | 0.00 | 0.00 | 0.00 | 63 | 1010.4 |
| 20260831151021 | 57 | 269 | 0.0 | 0.0 | 0.00 | 0.00 | 0.00 | 65 | 1010.4 |
| 20260831150604 | 57 | 269 | 0.0 | 0.0 | 0.00 | 0.00 | 0.00 | 65 | 1010.4 |
| 20260831150104 | 56 | 269 | 0.0 | 0.0 | 0.00 | 0.00 | 0.00 | 67 | 1010.3 |
| 20260831150024 | 55 | 269 | 0.0 | 0.0 | 0.00 | 0.00 | 0.00 | 70 | 1010.4 |
| 20260831145103 | 54 | 269 | 0.0 | 0.0 | 0.00 | 0.00 | 0.00 | 71 | 1010.3 |
| 20260831145021 | 54 | 269 | 0.0 | 0.0 | 0.00 | 0.00 | 0.00 | 73 | 1010.3 |
| 20260831144103 | 53 | 269 | 0.0 | 0.0 | 0.00 | 0.00 | 0.00 | 75 | 1010.3 |
| 20260831144021 | 52 | 269 | 0.0 | 0.0 | 0.00 | 0.00 | 0.00 | 76 | 1010.2 |
| 20260831143604 | 52 | 269 | 0.0 | 0.0 | 0.00 | 0.00 | 0.00 | 76 | 1010.2 |
| 20260831143104 | 52 | 269 | 0.0 | 0.0 | 0.00 | 0.00 | 0.00 | 76 | 1010.3 |
| 20260831142604 | 51 | 269 | 0.0 | 0.0 | 0.00 | 0.00 | 0.00 | 76 | 1010.2 |
| 20260831142104 | 51 | 269 | 0.0 | 0.0 | 0.00 | 0.00 | 0.00 | 75 | 1010.1 |
| 20260831142021 | 51 | 269 | 0.0 | 0.0 | 0.00 | 0.00 | 0.00 | 75 | 1010.1 |
| 20260831141604 | 51 | 269 | 0.0 | 0.0 | 0.00 | 0.00 | 0.00 | 75 | 1010.1 |
| 20260831141104 | 51 | 269 | 0.0 | 0.0 | 0.00 | 0.00 | 0.00 | 75 | 1010.1 |
| 20260831141021 | 51 | 269 | 0.0 | 0.0 | 0.00 | 0.00 | 0.00 | 74 | 1010.1 |
| 20260831140604 | 51 | 269 | 0.0 | 0.0 | 0.00 | 0.00 | 0.00 | 74 | 1010.1 |
| 20260831140104 | 51 | 269 | 0.0 | 0.0 | 0.00 | 0.00 | 0.00 | 74 | 1010.0 |
| 20260831135103 | 51 | 269 | 0.0 | 0.0 | 0.00 | 0.00 | 0.00 | 75 | 1010.0 |
| 20260831135021 | 51 | 269 | 0.0 | 0.0 | 0.00 | 0.00 | 0.00 | 74 | 1010.1 |
| 20260831134604 | 51 | 269 | 0.0 | 0.0 | 0.00 | 0.00 | 0.00 | 74 | 1010.1 |
| 20260831134104 | 51 | 269 | 0.0 | 0.0 | 0.00 | 0.00 | 0.00 | 74 | 1010.0 |
| 20260831134022 | 51 | 269 | 0.0 | 0.0 | 0.00 | 0.00 | 0.00 | 74 | 1010.0 |
| 20260831133604 | 51 | 269 | 0.0 | 0.0 | 0.00 | 0.00 | 0.00 | 74 | 1010.0 |
| 20260831133021 | 51 | 269 | 0.0 | 0.0 | 0.00 | 0.00 | 0.00 | 74 | 1010.1 |
| 20260831132104 | 51 | 269 | 0.0 | 0.0 | 0.00 | 0.00 | 0.00 | 74 | 1010.1 |
| 20260831132022 | 51 | 269 | 0.0 | 0.0 | 0.00 | 0.00 | 0.00 | 73 | 1010.1 |
| 20260831131603 | 51 | 269 | 0.0 | 0.0 | 0.00 | 0.00 | 0.00 | 73 | 1010.1 |
| 20260831131104 | 51 | 269 | 0.0 | 0.0 | 0.00 | 0.00 | 0.00 | 73 | 1010.1 |
| 20260831130604 | 51 | 269 | 0.0 | 0.0 | 0.00 | 0.00 | 0.00 | 73 | 1010.1 |
| 20260831125604 | 51 | 269 | 0.0 | 0.0 | 0.00 | 0.00 | 0.00 | 72 | 1010.0 |
| 20260831125104 | 52 | 269 | 0.0 | 0.0 | 0.00 | 0.00 | 0.00 | 72 | 1010.0 |
| 20260831125022 | 52 | 269 | 0.0 | 0.0 | 0.00 | 0.00 | 0.00 | 72 | 1009.9 |
| 20260831124604 | 52 | 269 | 0.0 | 0.0 | 0.00 | 0.00 | 0.00 | 72 | 1009.9 |
| 20260831124022 | 52 | 269 | 0.0 | 0.0 | 0.00 | 0.00 | 0.00 | 72 | 1010.0 |
| 20260831123604 | 52 | 269 | 0.0 | 0.0 | 0.00 | 0.00 | 0.00 | 72 | 1010.0 |
| 20260831123104 | 52 | 269 | 0.0 | 0.0 | 0.00 | 0.00 | 0.00 | 72 | 1010.0 |
| 20260831123022 | 52 | 269 | 0.0 | 0.0 | 0.00 | 0.00 | 0.00 | 71 | 1010.1 |
| 20260831122603 | 52 | 269 | 0.0 | 0.0 | 0.00 | 0.00 | 0.00 | 71 | 1010.1 |
| 20260831122104 | 52 | 269 | 0.0 | 0.0 | 0.00 | 0.00 | 0.00 | 71 | 1010.1 |
| 20260831121604 | 52 | 269 | 0.0 | 0.0 | 0.00 | 0.00 | 0.00 | 71 | 1010.1 |
| 20260831121104 | 52 | 269 | 0.0 | 0.0 | 0.00 | 0.00 | 0.00 | 71 | 1010.0 |
| 20260831121022 | 52 | 269 | 0.0 | 0.0 | 0.00 | 0.00 | 0.00 | 71 | 1010.0 |
| 20260831120604 | 52 | 269 | 0.0 | 0.0 | 0.00 | 0.00 | 0.00 | 71 | 1010.0 |
| 20260831120104 | 53 | 269 | 0.0 | 0.0 | 0.00 | 0.00 | 0.00 | 71 | 1010.0 |
| 20260831120021 | 53 | 269 | 0.0 | 0.0 | 0.00 | 0.00 | 0.00 | 71 | 1010.0 |
| 20260831115604 | 53 | 269 | 0.0 | 0.0 | 0.00 | 0.00 | 0.00 | 71 | 1010.0 |
| 20260831115104 | 53 | 269 | 0.0 | 0.0 | 0.00 | 0.00 | 0.00 | 71 | 1010.1 |
| 20260831115022 | 53 | 269 | 0.0 | 0.0 | 0.00 | 0.00 | 0.00 | 71 | 1010.1 |
| 20260831114603 | 53 | 269 | 0.0 | 0.0 | 0.00 | 0.00 | 0.00 | 71 | 1010.1 |
| 20260831114103 | 53 | 269 | 0.0 | 0.0 | 0.00 | 0.00 | 0.00 | 70 | 1010.1 |
| 20260831114021 | 53 | 269 | 0.0 | 0.0 | 0.00 | 0.00 | 0.00 | 70 | 1010.2 |
| 20260831113104 | 53 | 269 | 0.0 | 0.0 | 0.00 | 0.00 | 0.00 | 70 | 1010.3 |
| 20260831113022 | 53 | 269 | 0.0 | 0.0 | 0.00 | 0.00 | 0.00 | 70 | 1010.3 |
| 20260831112603 | 53 | 269 | 0.0 | 0.0 | 0.00 | 0.00 | 0.00 | 70 | 1010.3 |
| 20260831112104 | 53 | 269 | 0.0 | 0.0 | 0.00 | 0.00 | 0.00 | 69 | 1010.3 |
| 20260831112022 | 53 | 269 | 0.0 | 0.0 | 0.00 | 0.00 | 0.00 | 69 | 1010.3 |
| 20260831111104 | 54 | 269 | 0.0 | 0.0 | 0.00 | 0.00 | 0.00 | 69 | 1010.3 |
| 20260831111022 | 54 | 269 | 0.0 | 0.0 | 0.00 | 0.00 | 0.00 | 69 | 1010.3 |
| 20260831110604 | 54 | 269 | 0.0 | 0.0 | 0.00 | 0.00 | 0.00 | 69 | 1010.3 |
| 20260831110104 | 54 | 269 | 0.0 | 0.0 | 0.00 | 0.00 | 0.00 | 69 | 1010.3 |
| 20260831110022 | 54 | 269 | 0.0 | 0.0 | 0.00 | 0.00 | 0.00 | 69 | 1010.2 |
| 20260831105604 | 54 | 269 | 0.0 | 0.0 | 0.00 | 0.00 | 0.00 | 69 | 1010.2 |
| 20260831105104 | 54 | 269 | 0.0 | 0.0 | 0.00 | 0.00 | 0.00 | 69 | 1010.2 |
| 20260831104604 | 54 | 269 | 0.0 | 0.0 | 0.00 | 0.00 | 0.00 | 69 | 1010.3 |
| 20260831104104 | 54 | 269 | 0.0 | 0.0 | 0.00 | 0.00 | 0.00 | 68 | 1010.3 |
| 20260831104022 | 54 | 269 | 0.0 | 0.0 | 0.00 | 0.00 | 0.00 | 68 | 1010.4 |
| 20260831103603 | 54 | 269 | 0.0 | 0.0 | 0.00 | 0.00 | 0.00 | 68 | 1010.4 |
| 20260831102604 | 55 | 269 | 0.0 | 0.0 | 0.00 | 0.00 | 0.00 | 67 | 1010.3 |
| 20260831102103 | 55 | 269 | 0.0 | 0.0 | 0.00 | 0.00 | 0.00 | 67 | 1010.3 |
| 20260831102021 | 55 | 269 | 0.0 | 0.0 | 0.00 | 0.00 | 0.00 | 67 | 1010.4 |
| 20260831101603 | 55 | 269 | 0.0 | 0.0 | 0.00 | 0.00 | 0.00 | 67 | 1010.4 |
| 20260831101104 | 55 | 269 | 0.0 | 0.0 | 0.00 | 0.00 | 0.00 | 66 | 1010.4 |
| 20260831101022 | 55 | 269 | 0.0 | 0.0 | 0.00 | 0.00 | 0.00 | 66 | 1010.4 |
| 20260831100604 | 55 | 269 | 0.0 | 0.0 | 0.00 | 0.00 | 0.00 | 66 | 1010.4 |
| 20260831100021 | 56 | 269 | 0.0 | 0.0 | 0.00 | 0.00 | 0.00 | 66 | 1010.4 |
| 20260831095604 | 56 | 269 | 0.0 | 0.0 | 0.00 | 0.00 | 0.00 | 66 | 1010.4 |
| 20260831095104 | 56 | 269 | 0.0 | 0.0 | 0.00 | 0.00 | 0.00 | 65 | 1010.4 |
| 20260831095022 | 56 | 269 | 0.0 | 0.0 | 0.00 | 0.00 | 0.00 | 65 | 1010.5 |
| 20260831094604 | 56 | 269 | 0.0 | 0.0 | 0.00 | 0.00 | 0.00 | 65 | 1010.5 |
| 20260831094104 | 56 | 269 | 0.0 | 0.0 | 0.00 | 0.00 | 0.00 | 65 | 1010.5 |
| 20260831094021 | 56 | 269 | 0.0 | 0.0 | 0.00 | 0.00 | 0.00 | 65 | 1010.5 |
| 20260831093604 | 56 | 269 | 0.0 | 0.0 | 0.00 | 0.00 | 0.00 | 65 | 1010.5 |
| 20260831093103 | 57 | 269 | 0.0 | 0.0 | 0.00 | 0.00 | 0.00 | 65 | 1010.5 |
| 20260831093021 | 57 | 269 | 0.0 | 0.0 | 0.00 | 0.00 | 0.00 | 64 | 1010.6 |
| 20260831092603 | 57 | 269 | 0.0 | 0.0 | 0.00 | 0.00 | 0.00 | 64 | 1010.6 |
| 20260831092104 | 57 | 269 | 0.0 | 0.0 | 0.00 | 0.00 | 0.00 | 63 | 1010.6 |
| 20260831091604 | 57 | 269 | 0.0 | 0.0 | 0.00 | 0.00 | 0.00 | 63 | 1010.6 |
| 20260831091104 | 57 | 269 | 0.0 | 0.0 | 0.00 | 0.00 | 0.00 | 63 | 1010.6 |
| 20260831091022 | 57 | 269 | 0.0 | 0.0 | 0.00 | 0.00 | 0.00 | 63 | 1010.6 |
| 20260831090104 | 58 | 269 | 0.0 | 0.0 | 0.00 | 0.00 | 0.00 | 63 | 1010.6 |
| 20260831085021 | 58 | 269 | 0.0 | 0.0 | 0.00 | 0.00 | 0.00 | 62 | 1010.7 |
| 20260831084604 | 58 | 269 | 0.0 | 0.0 | 0.00 | 0.00 | 0.00 | 62 | 1010.7 |
| 20260831084104 | 58 | 269 | 0.0 | 0.0 | 0.00 | 0.00 | 0.00 | 62 | 1010.6 |
| 20260831084021 | 58 | 269 | 0.0 | 0.0 | 0.00 | 0.00 | 0.00 | 62 | 1010.8 |
| 20260831083104 | 59 | 269 | 0.0 | 0.0 | 0.00 | 0.00 | 0.00 | 60 | 1010.8 |
| 20260831083021 | 59 | 269 | 0.0 | 0.0 | 0.00 | 0.00 | 0.00 | 60 | 1010.7 |
| 20260831082604 | 59 | 269 | 0.0 | 0.0 | 0.00 | 0.00 | 0.00 | 60 | 1010.7 |
| 20260831082103 | 59 | 269 | 0.0 | 0.0 | 0.00 | 0.00 | 0.00 | 60 | 1010.8 |
| 20260831081603 | 59 | 269 | 0.0 | 0.0 | 0.00 | 0.00 | 0.00 | 60 | 1010.7 |
| 20260831081104 | 60 | 269 | 0.0 | 0.0 | 0.00 | 0.00 | 0.00 | 60 | 1010.8 |
| 20260831081022 | 60 | 269 | 0.0 | 0.0 | 0.00 | 0.00 | 0.00 | 60 | 1010.8 |
| 20260831080603 | 60 | 269 | 0.0 | 0.0 | 0.00 | 0.00 | 0.00 | 60 | 1010.8 |
| 20260831080104 | 60 | 269 | 0.0 | 0.0 | 0.00 | 0.00 | 0.00 | 60 | 1010.8 |
| 20260831080022 | 60 | 269 | 0.0 | 0.0 | 0.00 | 0.00 | 0.00 | 60 | 1010.9 |
| 20260831075604 | 60 | 269 | 0.0 | 0.0 | 0.00 | 0.00 | 0.00 | 60 | 1010.9 |
| 20260831075104 | 61 | 269 | 0.0 | 0.0 | 0.00 | 0.00 | 0.00 | 59 | 1010.8 |
| 20260831075022 | 61 | 269 | 0.0 | 0.0 | 0.00 | 0.00 | 0.00 | 57 | 1010.9 |
| 20260831074604 | 61 | 269 | 0.0 | 0.0 | 0.00 | 0.00 | 0.00 | 57 | 1010.9 |
| 20260831074104 | 61 | 269 | 0.0 | 0.0 | 0.00 | 0.00 | 0.00 | 58 | 1010.9 |
| 20260831074022 | 61 | 269 | 0.0 | 0.0 | 0.00 | 0.00 | 0.00 | 58 | 1011.0 |
| 20260831073604 | 61 | 269 | 0.0 | 0.0 | 0.00 | 0.00 | 0.00 | 58 | 1011.0 |
| 20260831073103 | 61 | 269 | 0.0 | 0.0 | 0.00 | 0.00 | 0.00 | 57 | 1011.0 |
| 20260831073021 | 61 | 269 | 0.0 | 0.0 | 0.00 | 0.00 | 0.00 | 57 | 1011.0 |
| 20260831072104 | 61 | 269 | 0.0 | 0.0 | 0.00 | 0.00 | 0.00 | 56 | 1011.0 |
| 20260831072022 | 62 | 269 | 0.0 | 0.0 | 0.00 | 0.00 | 0.00 | 56 | 1011.0 |
| 20260831071604 | 62 | 269 | 0.0 | 0.0 | 0.00 | 0.00 | 0.00 | 56 | 1011.0 |
| 20260831071022 | 62 | 269 | 0.0 | 0.0 | 0.00 | 0.00 | 0.00 | 55 | 1011.1 |
| 20260831070604 | 62 | 269 | 0.0 | 0.0 | 0.00 | 0.00 | 0.00 | 55 | 1011.1 |
| 20260831070104 | 62 | 269 | 0.0 | 0.0 | 0.00 | 0.00 | 0.00 | 56 | 1011.2 |
| 20260831065603 | 63 | 269 | 0.0 | 0.0 | 0.00 | 0.00 | 0.00 | 55 | 1011.2 |
| 20260831065104 | 63 | 269 | 0.0 | 0.0 | 0.00 | 0.00 | 0.00 | 55 | 1011.2 |
| 20260831065021 | 63 | 269 | 0.0 | 0.0 | 0.00 | 0.00 | 0.00 | 53 | 1011.2 |
| 20260831064604 | 63 | 269 | 0.0 | 0.0 | 0.00 | 0.00 | 0.00 | 53 | 1011.2 |
| 20260831064104 | 63 | 269 | 0.0 | 0.0 | 0.00 | 0.00 | 0.00 | 53 | 1011.3 |
| 20260831063604 | 63 | 269 | 0.0 | 0.0 | 0.00 | 0.00 | 0.00 | 53 | 1011.3 |
| 20260831063104 | 64 | 269 | 0.0 | 0.0 | 0.00 | 0.00 | 0.00 | 53 | 1011.3 |
| 20260831063021 | 64 | 269 | 0.0 | 0.0 | 0.00 | 0.00 | 0.00 | 53 | 1011.4 |
| 20260831062604 | 64 | 269 | 0.0 | 0.0 | 0.00 | 0.00 | 0.00 | 53 | 1011.4 |
| 20260831062103 | 64 | 269 | 0.0 | 0.0 | 0.00 | 0.00 | 0.00 | 52 | 1011.3 |
| 20260831062021 | 65 | 269 | 0.0 | 0.0 | 0.00 | 0.00 | 0.00 | 53 | 1011.3 |
| 20260831061604 | 65 | 269 | 0.0 | 0.0 | 0.00 | 0.00 | 0.00 | 53 | 1011.3 |
| 20260831061104 | 65 | 269 | 0.0 | 0.0 | 0.00 | 0.00 | 0.00 | 51 | 1011.2 |
| 20260831061022 | 65 | 269 | 0.0 | 0.0 | 0.00 | 0.00 | 0.00 | 50 | 1011.3 |
| 20260831060604 | 65 | 269 | 0.0 | 0.0 | 0.00 | 0.00 | 0.00 | 50 | 1011.3 |
| 20260831060104 | 65 | 269 | 0.0 | 0.0 | 0.00 | 0.00 | 0.00 | 50 | 1011.3 |
| 20260831060021 | 66 | 269 | 0.0 | 0.0 | 0.00 | 0.00 | 0.00 | 50 | 1011.4 |
| 20260831055604 | 66 | 269 | 0.0 | 0.0 | 0.00 | 0.00 | 0.00 | 50 | 1011.4 |
| 20260831055104 | 66 | 269 | 0.0 | 0.0 | 0.00 | 0.00 | 0.00 | 49 | 1011.3 |
| 20260831054604 | 66 | 269 | 0.0 | 0.0 | 0.00 | 0.00 | 0.00 | 48 | 1011.3 |
| 20260831054104 | 66 | 269 | 0.0 | 0.0 | 0.00 | 0.00 | 0.00 | 48 | 1011.3 |
| 20260831054021 | 67 | 269 | 0.0 | 0.0 | 0.00 | 0.00 | 0.00 | 47 | 1011.4 |
| 20260831053604 | 67 | 269 | 0.0 | 0.0 | 0.00 | 0.00 | 0.00 | 47 | 1011.4 |
| 20260831053104 | 67 | 269 | 0.0 | 0.0 | 0.00 | 0.00 | 0.00 | 47 | 1011.4 |
| 20260831053021 | 67 | 269 | 0.0 | 0.0 | 0.00 | 0.00 | 0.00 | 47 | 1011.3 |
| 20260831052604 | 67 | 269 | 0.0 | 0.0 | 0.00 | 0.00 | 0.00 | 47 | 1011.3 |
| 20260831052104 | 67 | 269 | 0.0 | 0.0 | 0.00 | 0.00 | 0.00 | 47 | 1011.4 |
| 20260831052021 | 67 | 269 | 0.0 | 0.0 | 0.00 | 0.00 | 0.00 | 46 | 1011.5 |
| 20260831051604 | 67 | 269 | 0.0 | 0.0 | 0.00 | 0.00 | 0.00 | 46 | 1011.5 |
| 20260831051103 | 67 | 269 | 0.0 | 0.0 | 0.00 | 0.00 | 0.00 | 46 | 1011.5 |
| 20260831051021 | 68 | 269 | 0.0 | 0.0 | 0.00 | 0.00 | 0.00 | 46 | 1011.4 |
| 20260831050604 | 68 | 269 | 0.0 | 0.0 | 0.00 | 0.00 | 0.00 | 46 | 1011.4 |
| 20260831050104 | 68 | 269 | 0.0 | 0.0 | 0.00 | 0.00 | 0.00 | 46 | 1011.4 |
| 20260831050021 | 68 | 269 | 0.0 | 0.0 | 0.00 | 0.00 | 0.00 | 46 | 1011.4 |
| 20260831045022 | 69 | 269 | 0.0 | 0.0 | 0.00 | 0.00 | 0.00 | 48 | 1011.3 |
| 20260831044604 | 69 | 269 | 0.0 | 0.0 | 0.00 | 0.00 | 0.00 | 48 | 1011.3 |
| 20260831044104 | 69 | 269 | 0.0 | 0.0 | 0.00 | 0.00 | 0.00 | 46 | 1011.2 |
| 20260831044021 | 69 | 269 | 0.0 | 0.0 | 0.00 | 0.00 | 0.00 | 46 | 1011.1 |
| 20260831043604 | 69 | 269 | 0.0 | 0.0 | 0.00 | 0.00 | 0.00 | 46 | 1011.1 |
| 20260831043104 | 70 | 269 | 0.0 | 0.0 | 0.00 | 0.00 | 0.00 | 47 | 1011.1 |
| 20260831043022 | 70 | 269 | 0.0 | 0.0 | 0.00 | 0.00 | 0.00 | 44 | 1011.1 |
| 20260831042104 | 70 | 269 | 0.0 | 0.0 | 0.00 | 0.00 | 0.00 | 44 | 1011.1 |
| 20260831041603 | 71 | 269 | 0.0 | 0.0 | 0.00 | 0.00 | 0.00 | 44 | 1011.0 |
| 20260831041104 | 71 | 269 | 0.0 | 0.0 | 0.00 | 0.00 | 0.00 | 44 | 1010.9 |
| 20260831041021 | 71 | 270 | 0.0 | 0.0 | 0.00 | 0.00 | 0.00 | 44 | 1010.9 |
| 20260831040603 | 71 | 270 | 0.0 | 0.0 | 0.00 | 0.00 | 0.00 | 44 | 1010.9 |
| 20260831040104 | 72 | 270 | 0.0 | 0.0 | 0.00 | 0.00 | 0.00 | 43 | 1010.9 |
| 20260831040021 | 72 | 270 | 0.0 | 0.0 | 0.00 | 0.00 | 0.00 | 42 | 1010.8 |
| 20260831035604 | 72 | 270 | 0.0 | 0.0 | 0.00 | 0.00 | 0.00 | 42 | 1010.8 |
| 20260831035021 | 73 | 270 | 0.0 | 0.0 | 0.00 | 0.00 | 0.00 | 41 | 1010.7 |
| 20260831034604 | 73 | 270 | 0.0 | 0.0 | 0.00 | 0.00 | 0.00 | 41 | 1010.7 |
| 20260831033604 | 74 | 270 | 0.0 | 0.0 | 0.00 | 0.00 | 0.00 | 40 | 1010.5 |
| 20260831033104 | 75 | 270 | 0.0 | 0.0 | 0.00 | 0.00 | 0.00 | 38 | 1010.5 |
| 20260831032604 | 75 | 270 | 0.0 | 0.0 | 0.00 | 0.00 | 0.00 | 38 | 1010.4 |
| 20260831032104 | 76 | 270 | 0.0 | 0.0 | 0.00 | 0.00 | 0.00 | 37 | 1010.3 |
| 20260831032022 | 76 | 270 | 0.0 | 0.0 | 0.00 | 0.00 | 0.00 | 37 | 1010.3 |
| 20260831031603 | 76 | 270 | 0.0 | 0.0 | 0.00 | 0.00 | 0.00 | 37 | 1010.3 |
| 20260831031104 | 76 | 270 | 0.0 | 0.0 | 0.00 | 0.00 | 0.00 | 36 | 1010.2 |
| 20260831031022 | 77 | 270 | 0.0 | 0.0 | 0.00 | 0.00 | 0.00 | 37 | 1010.1 |
| 20260831030603 | 77 | 270 | 0.0 | 0.0 | 0.00 | 0.00 | 0.00 | 37 | 1010.1 |
| 20260831030104 | 77 | 270 | 0.0 | 0.0 | 0.00 | 0.00 | 0.00 | 35 | 1010.1 |
| 20260831030021 | 78 | 270 | 0.0 | 0.0 | 0.00 | 0.00 | 0.00 | 36 | 1010.1 |
| 20260831025604 | 78 | 270 | 0.0 | 0.0 | 0.00 | 0.00 | 0.00 | 36 | 1010.1 |
| 20260831025103 | 78 | 270 | 0.0 | 0.0 | 0.00 | 0.00 | 0.00 | 35 | 1010.0 |
| 20260831025021 | 78 | 270 | 0.0 | 0.0 | 0.00 | 0.00 | 0.00 | 35 | 1009.9 |
| 20260831024103 | 78 | 270 | 0.0 | 0.0 | 0.00 | 0.00 | 0.00 | 33 | 1009.9 |
| 20260831024022 | 79 | 269 | 0.0 | 0.0 | 0.00 | 0.00 | 0.00 | 31 | 1009.9 |
| 20260831023603 | 79 | 269 | 0.0 | 0.0 | 0.00 | 0.00 | 0.00 | 31 | 1009.9 |
| 20260831023103 | 79 | 267 | 0.0 | 0.0 | 0.00 | 0.00 | 0.00 | 31 | 1009.8 |
| 20260831023023 | 80 | 267 | 0.0 | 0.0 | 0.00 | 0.00 | 0.00 | 30 | 1009.9 |
| 20260831022603 | 80 | 267 | 0.0 | 0.0 | 0.00 | 0.00 | 0.00 | 30 | 1009.9 |
| 20260831022022 | 81 | 267 | 0.0 | 0.0 | 0.00 | 0.00 | 0.00 | 29 | 1009.8 |
| 20260831021103 | 82 | 267 | 0.0 | 0.0 | 0.00 | 0.00 | 0.00 | 29 | 1009.8 |
| 20260831021022 | 82 | 267 | 0.0 | 0.0 | 0.00 | 0.00 | 0.00 | 29 | 1009.8 |
| 20260831020604 | 82 | 267 | 0.0 | 0.0 | 0.00 | 0.00 | 0.00 | 29 | 1009.8 |
| 20260831020103 | 83 | 351 | 0.0 | 0.0 | 0.00 | 0.00 | 0.00 | 27 | 1009.8 |
| 20260831020023 | 83 | 345 | 0.0 | 0.0 | 0.00 | 0.00 | 0.00 | 24 | 1009.9 |
| 20260831015104 | 83 | 340 | 0.0 | 0.0 | 0.00 | 0.00 | 0.00 | 24 | 1010.0 |
| 20260831015022 | 84 | 340 | 0.0 | 3.0 | 0.00 | 0.00 | 0.00 | 23 | 1009.8 |
| 20260831014103 | 84 | 340 | 0.0 | 0.0 | 0.00 | 0.00 | 0.00 | 24 | 1009.9 |
| 20260831014021 | 84 | 339 | 0.0 | 1.0 | 0.00 | 0.00 | 0.00 | 24 | 1009.9 |
| 20260831013604 | 84 | 339 | 0.0 | 1.0 | 0.00 | 0.00 | 0.00 | 24 | 1009.9 |
| 20260831013104 | 84 | 341 | 0.0 | 0.0 | 0.00 | 0.00 | 0.00 | 24 | 1009.9 |
| 20260831013024 | 85 | 355 | 0.0 | 5.0 | 0.00 | 0.00 | 0.00 | 23 | 1010.0 |
| 20260831012604 | 85 | 355 | 0.0 | 5.0 | 0.00 | 0.00 | 0.00 | 23 | 1010.0 |
| 20260831012104 | 85 | 290 | 1.0 | 5.0 | 0.00 | 0.00 | 0.00 | 23 | 1010.0 |
| 20260831012022 | 85 | 13 | 1.0 | 3.0 | 0.00 | 0.00 | 0.00 | 24 | 1010.1 |
| 20260831011604 | 85 | 13 | 1.0 | 3.0 | 0.00 | 0.00 | 0.00 | 24 | 1010.1 |
| 20260831011104 | 85 | 0 | 0.0 | 8.0 | 0.00 | 0.00 | 0.00 | 24 | 1010.0 |
| 20260831011022 | 85 | 9 | 2.0 | 5.0 | 0.00 | 0.00 | 0.00 | 24 | 1010.1 |
| 20260831010604 | 85 | 9 | 2.0 | 5.0 | 0.00 | 0.00 | 0.00 | 24 | 1010.1 |
| 20260831010104 | 85 | 351 | 0.0 | 5.0 | 0.00 | 0.00 | 0.00 | 25 | 1010.1 |
| 20260831010025 | 85 | 19 | 0.0 | 1.0 | 0.00 | 0.00 | 0.00 | 26 | 1010.2 |
| 20260831005604 | 85 | 19 | 0.0 | 1.0 | 0.00 | 0.00 | 0.00 | 26 | 1010.2 |
| 20260831005104 | 85 | 15 | 0.0 | 2.0 | 0.00 | 0.00 | 0.00 | 25 | 1010.2 |
| 20260831004604 | 85 | 14 | 1.0 | 3.0 | 0.00 | 0.00 | 0.00 | 25 | 1010.3 |
| 20260831004104 | 85 | 316 | 0.0 | 5.0 | 0.00 | 0.00 | 0.00 | 25 | 1010.4 |
| 20260831004023 | 85 | 312 | 1.0 | 3.0 | 0.00 | 0.00 | 0.00 | 25 | 1010.4 |
| 20260831003604 | 85 | 312 | 1.0 | 3.0 | 0.00 | 0.00 | 0.00 | 25 | 1010.4 |
| 20260831002604 | 85 | 355 | 0.0 | 3.0 | 0.00 | 0.00 | 0.00 | 24 | 1010.4 |
| 20260831002103 | 85 | 62 | 0.0 | 0.0 | 0.00 | 0.00 | 0.00 | 26 | 1010.4 |
| 20260831002023 | 85 | 59 | 1.0 | 3.0 | 0.00 | 0.00 | 0.00 | 24 | 1010.4 |
| 20260831001603 | 85 | 59 | 1.0 | 3.0 | 0.00 | 0.00 | 0.00 | 24 | 1010.4 |
| 20260831001104 | 85 | 10 | 0.0 | 0.0 | 0.00 | 0.00 | 0.00 | 25 | 1010.5 |
| 20260831001020 | 85 | 44 | 0.0 | 2.0 | 0.00 | 0.00 | 0.00 | 26 | 1010.5 |
| 20260831000603 | 85 | 44 | 0.0 | 2.0 | 0.00 | 0.00 | 0.00 | 26 | 1010.5 |
| 20260831000103 | 85 | 66 | 1.0 | 3.0 | 0.00 | 0.00 | 0.00 | 26 | 1010.5 |
| 20260831000022 | 85 | 7 | 2.0 | 7.0 | 0.00 | 0.00 | 0.00 | 25 | 1010.6 |
| 20260830235604 | 85 | 7 | 2.0 | 7.0 | 0.00 | 0.00 | 0.00 | 25 | 1010.6 |
| 20260830235104 | 84 | 325 | 0.0 | 3.0 | 0.00 | 0.00 | 0.00 | 28 | 1010.6 |
| 20260830234604 | 85 | 350 | 1.0 | 6.0 | 0.00 | 0.00 | 0.00 | 27 | 1010.7 |
| 20260830234103 | 85 | 10 | 0.0 | 5.0 | 0.00 | 0.00 | 0.00 | 26 | 1010.8 |
| 20260830234020 | 84 | 31 | 2.0 | 5.0 | 0.00 | 0.00 | 0.00 | 26 | 1010.8 |
| 20260830233604 | 84 | 31 | 2.0 | 5.0 | 0.00 | 0.00 | 0.00 | 26 | 1010.8 |
| 20260830233103 | 84 | 6 | 1.0 | 3.0 | 0.00 | 0.00 | 0.00 | 27 | 1010.9 |
| 20260830233022 | 85 | 346 | 0.0 | 5.0 | 0.00 | 0.00 | 0.00 | 27 | 1010.9 |
| 20260830232603 | 85 | 346 | 0.0 | 5.0 | 0.00 | 0.00 | 0.00 | 27 | 1010.9 |
| 20260830232103 | 85 | 3 | 1.0 | 7.0 | 0.00 | 0.00 | 0.00 | 27 | 1011.1 |
| 20260830232020 | 85 | 5 | 2.0 | 8.0 | 0.00 | 0.00 | 0.00 | 27 | 1011.2 |
| 20260830231603 | 85 | 5 | 2.0 | 8.0 | 0.00 | 0.00 | 0.00 | 27 | 1011.2 |
| 20260830231104 | 84 | 24 | 2.0 | 6.0 | 0.00 | 0.00 | 0.00 | 27 | 1011.2 |
| 20260830231023 | 85 | 16 | 0.0 | 8.0 | 0.00 | 0.00 | 0.00 | 27 | 1011.3 |
| 20260830230603 | 85 | 16 | 0.0 | 8.0 | 0.00 | 0.00 | 0.00 | 27 | 1011.3 |
| 20260830230104 | 84 | 355 | 0.0 | 0.0 | 0.00 | 0.00 | 0.00 | 28 | 1011.4 |
| 20260830230024 | 84 | 352 | 1.0 | 6.0 | 0.00 | 0.00 | 0.00 | 28 | 1011.5 |
| 20260830225604 | 84 | 352 | 1.0 | 6.0 | 0.00 | 0.00 | 0.00 | 28 | 1011.5 |
| 20260830225104 | 84 | 261 | 2.0 | 6.0 | 0.00 | 0.00 | 0.00 | 29 | 1011.6 |
| 20260830225023 | 84 | 259 | 1.0 | 3.0 | 0.00 | 0.00 | 0.00 | 30 | 1011.7 |
| 20260830224104 | 84 | 213 | 1.0 | 3.0 | 0.00 | 0.00 | 0.00 | 29 | 1011.8 |
| 20260830223604 | 84 | 355 | 2.0 | 5.0 | 0.00 | 0.00 | 0.00 | 29 | 1011.9 |
| 20260830223104 | 83 | 329 | 0.0 | 3.0 | 0.00 | 0.00 | 0.00 | 31 | 1012.0 |
| 20260830223024 | 83 | 349 | 0.0 | 1.0 | 0.00 | 0.00 | 0.00 | 30 | 1012.1 |
| 20260830222604 | 83 | 349 | 0.0 | 1.0 | 0.00 | 0.00 | 0.00 | 30 | 1012.1 |
| 20260830222104 | 83 | 353 | 0.0 | 3.0 | 0.00 | 0.00 | 0.00 | 30 | 1012.1 |
| 20260830222023 | 83 | 355 | 0.0 | 5.0 | 0.00 | 0.00 | 0.00 | 29 | 1012.3 |
| 20260830221603 | 83 | 355 | 0.0 | 5.0 | 0.00 | 0.00 | 0.00 | 29 | 1012.3 |
| 20260830221103 | 83 | 6 | 0.0 | 3.0 | 0.00 | 0.00 | 0.00 | 30 | 1012.4 |
| 20260830221023 | 82 | 21 | 0.0 | 0.0 | 0.00 | 0.00 | 0.00 | 31 | 1012.5 |
| 20260830220025 | 83 | 357 | 3.0 | 8.0 | 0.00 | 0.00 | 0.00 | 31 | 1012.7 |
| 20260830215604 | 83 | 357 | 3.0 | 8.0 | 0.00 | 0.00 | 0.00 | 31 | 1012.7 |
| 20260830215023 | 82 | 54 | 1.0 | 3.0 | 0.00 | 0.00 | 0.00 | 31 | 1012.8 |
| 20260830214604 | 82 | 54 | 1.0 | 3.0 | 0.00 | 0.00 | 0.00 | 31 | 1012.8 |
| 20260830214104 | 82 | 55 | 2.0 | 5.0 | 0.00 | 0.00 | 0.00 | 31 | 1013.0 |
| 20260830214023 | 82 | 61 | 3.0 | 6.0 | 0.00 | 0.00 | 0.00 | 32 | 1013.1 |
| 20260830213603 | 82 | 61 | 3.0 | 6.0 | 0.00 | 0.00 | 0.00 | 32 | 1013.1 |
| 20260830213104 | 80 | 248 | 0.0 | 3.0 | 0.00 | 0.00 | 0.00 | 35 | 1013.2 |
| 20260830213025 | 81 | 351 | 0.0 | 0.0 | 0.00 | 0.00 | 0.00 | 33 | 1013.3 |
| 20260830212604 | 81 | 351 | 0.0 | 0.0 | 0.00 | 0.00 | 0.00 | 33 | 1013.3 |
| 20260830212022 | 81 | 338 | 1.0 | 3.0 | 0.00 | 0.00 | 0.00 | 33 | 1013.5 |
| 20260830211603 | 81 | 338 | 1.0 | 3.0 | 0.00 | 0.00 | 0.00 | 33 | 1013.5 |
| 20260830211104 | 80 | 106 | 0.0 | 0.0 | 0.00 | 0.00 | 0.00 | 34 | 1013.5 |
| 20260830210105 | 79 | 53 | 1.0 | 3.0 | 0.00 | 0.00 | 0.00 | 34 | 1013.7 |
| 20260830205104 | 79 | 337 | 1.0 | 3.0 | 0.00 | 0.00 | 0.00 | 35 | 1013.8 |
| 20260830205020 | 78 | 1 | 0.0 | 0.0 | 0.00 | 0.00 | 0.00 | 37 | 1014.0 |
| 20260830204604 | 78 | 1 | 0.0 | 0.0 | 0.00 | 0.00 | 0.00 | 37 | 1014.0 |
| 20260830204103 | 77 | 343 | 0.0 | 0.0 | 0.00 | 0.00 | 0.00 | 38 | 1014.0 |
| 20260830204020 | 77 | 347 | 0.0 | 3.0 | 0.00 | 0.00 | 0.00 | 36 | 1014.2 |
| 20260830203604 | 77 | 347 | 0.0 | 3.0 | 0.00 | 0.00 | 0.00 | 36 | 1014.2 |
| 20260830203104 | 78 | 348 | 2.0 | 5.0 | 0.00 | 0.00 | 0.00 | 35 | 1014.4 |
| 20260830203021 | 77 | 17 | 1.0 | 3.0 | 0.00 | 0.00 | 0.00 | 39 | 1014.4 |
| 20260830202604 | 77 | 17 | 1.0 | 3.0 | 0.00 | 0.00 | 0.00 | 39 | 1014.4 |
| 20260830202104 | 78 | 5 | 2.0 | 3.0 | 0.00 | 0.00 | 0.00 | 36 | 1014.5 |
| 20260830202023 | 78 | 76 | 1.0 | 7.0 | 0.00 | 0.00 | 0.00 | 38 | 1014.4 |
| 20260830201022 | 76 | 0 | 0.0 | 3.0 | 0.00 | 0.00 | 0.00 | 38 | 1014.7 |
| 20260830200025 | 75 | 43 | 1.0 | 2.0 | 0.00 | 0.00 | 0.00 | 42 | 1014.7 |
| 20260830195104 | 75 | 51 | 0.0 | 3.0 | 0.00 | 0.00 | 0.00 | 43 | 1014.8 |
| 20260830195022 | 74 | 346 | 0.0 | 0.0 | 0.00 | 0.00 | 0.00 | 41 | 1014.9 |
| 20260830193604 | 73 | 341 | 0.0 | 3.0 | 0.00 | 0.00 | 0.00 | 44 | 1015.2 |
| 20260830193104 | 71 | 220 | 0.0 | 0.0 | 0.00 | 0.00 | 0.00 | 45 | 1015.2 |
| 20260830193023 | 71 | 219 | 1.0 | 3.0 | 0.00 | 0.00 | 0.00 | 45 | 1015.4 |
| 20260830192604 | 71 | 219 | 1.0 | 3.0 | 0.00 | 0.00 | 0.00 | 45 | 1015.4 |
| 20260830192020 | 72 | 34 | 0.0 | 0.0 | 0.00 | 0.00 | 0.00 | 44 | 1015.6 |
| 20260830191603 | 72 | 34 | 0.0 | 0.0 | 0.00 | 0.00 | 0.00 | 44 | 1015.6 |
| 20260830191104 | 71 | 34 | 0.0 | 0.0 | 0.00 | 0.00 | 0.00 | 42 | 1015.6 |
| 20260830191020 | 71 | 35 | 1.0 | 5.0 | 0.00 | 0.00 | 0.00 | 41 | 1015.7 |
| 20260830190603 | 71 | 35 | 1.0 | 5.0 | 0.00 | 0.00 | 0.00 | 41 | 1015.7 |
| 20260830190104 | 71 | 7 | 1.0 | 5.0 | 0.00 | 0.00 | 0.00 | 43 | 1015.7 |
| 20260830190022 | 71 | 30 | 0.0 | 3.0 | 0.00 | 0.00 | 0.00 | 45 | 1015.8 |
| 20260830185104 | 71 | 5 | 1.0 | 3.0 | 0.00 | 0.00 | 0.00 | 43 | 1015.9 |
| 20260830185020 | 70 | 55 | 2.0 | 5.0 | 0.00 | 0.00 | 0.00 | 48 | 1015.9 |
| 20260830184604 | 70 | 55 | 2.0 | 5.0 | 0.00 | 0.00 | 0.00 | 48 | 1015.9 |
| 20260830184104 | 68 | 308 | 0.0 | 0.0 | 0.00 | 0.00 | 0.00 | 48 | 1015.9 |
| 20260830184020 | 68 | 321 | 0.0 | 0.0 | 0.00 | 0.00 | 0.00 | 48 | 1016.2 |
| 20260830183604 | 68 | 321 | 0.0 | 0.0 | 0.00 | 0.00 | 0.00 | 48 | 1016.2 |
| 20260830183104 | 69 | 8 | 0.0 | 0.0 | 0.00 | 0.00 | 0.00 | 47 | 1016.2 |
| 20260830183026 | 67 | 263 | 0.0 | 0.0 | 0.00 | 0.00 | 0.00 | 53 | 1016.2 |
| 20260830182104 | 67 | 269 | 0.0 | 1.0 | 0.00 | 0.00 | 0.00 | 49 | 1016.3 |
| 20260830181104 | 66 | 355 | 0.0 | 1.0 | 0.00 | 0.00 | 0.00 | 50 | 1016.4 |
| 20260830181022 | 66 | 281 | 0.0 | 2.0 | 0.00 | 0.00 | 0.00 | 52 | 1016.5 |
| 20260830180603 | 66 | 281 | 0.0 | 2.0 | 0.00 | 0.00 | 0.00 | 52 | 1016.5 |
| 20260830180024 | 65 | 5 | 2.0 | 3.0 | 0.00 | 0.00 | 0.00 | 53 | 1016.5 |
| 20260830175604 | 65 | 5 | 2.0 | 3.0 | 0.00 | 0.00 | 0.00 | 53 | 1016.5 |
| 20260830175022 | 65 | 309 | 0.0 | 0.0 | 0.00 | 0.00 | 0.00 | 53 | 1016.6 |
| 20260830174604 | 65 | 309 | 0.0 | 0.0 | 0.00 | 0.00 | 0.00 | 53 | 1016.6 |
| 20260830174104 | 65 | 11 | 0.0 | 0.0 | 0.00 | 0.00 | 0.00 | 52 | 1016.6 |
| 20260830174021 | 65 | 290 | 0.0 | 0.0 | 0.00 | 0.00 | 0.00 | 52 | 1016.7 |
| 20260830173604 | 65 | 290 | 0.0 | 0.0 | 0.00 | 0.00 | 0.00 | 52 | 1016.7 |
| 20260830173104 | 65 | 293 | 0.0 | 0.0 | 0.00 | 0.00 | 0.00 | 51 | 1016.7 |
| 20260830173024 | 65 | 5 | 0.0 | 0.0 | 0.00 | 0.00 | 0.00 | 53 | 1016.7 |